Precipitable_Water
0.40 0.43 0.44 0.42 0.41 0.43 0.37 0.37 0.31 0.28 0.31 0.32 0.37 0.39 0.37 0.38 0.40 0.39 0.40 0.41 0.43 0.44 0.44 0.44 0.42 0.41 0.39 0.37 0.37 0.35 0.31 0.29 0.28 0.28 0.27 0.27 0.26 0.23 0.23 0.22 0.21 0.21 0.20 0.20
0.36 0.42 0.41 0.35 0.39 0.38 0.38 0.36 0.34 0.33 0.30 0.38 0.37 0.37 0.37 0.38 0.38 0.38 0.40 0.42 0.44 0.44 0.42 0.40 0.39 0.37 0.36 0.36 0.35 0.33 0.30 0.28 0.27 0.26 0.25 0.24 0.25 0.24 0.22 0.22 0.21 0.21 0.20 0.21
0.31 0.39 0.35 0.28 0.32 0.33 0.31 0.32 0.32 0.27 0.31 0.35 0.33 0.35 0.36 0.36 0.38 0.42 0.43 0.42 0.42 0.39 0.37 0.37 0.37 0.35 0.33 0.32 0.31 0.29 0.27 0.27 0.26 0.26 0.25 0.24 0.24 0.23 0.21 0.20 0.19 0.18 0.18 0.18
0.32 0.34 0.22 0.31 0.36 0.34 0.32 0.32 0.34 0.33 0.34 0.33 0.35 0.37 0.39 0.43 0.44 0.44 0.42 0.40 0.38 0.37 0.34 0.33 0.33 0.31 0.30 0.29 0.27 0.27 0.26 0.26 0.26 0.25 0.24 0.23 0.23 0.22 0.20 0.19 0.18 0.17 0.17 0.18
0.31 0.27 0.28 0.30 0.32 0.31 0.28 0.27 0.34 0.32 0.33 0.38 0.39 0.41 0.42 0.45 0.46 0.42 0.40 0.39 0.37 0.34 0.31 0.29 0.27 0.27 0.27 0.27 0.26 0.25 0.24 0.23 0.23 0.23 0.22 0.22 0.21 0.21 0.21 0.20 0.19 0.18 0.18 0.18
0.29 0.23 0.19 0.25 0.32 0.35 0.34 0.23 0.33 0.36 0.38 0.40 0.42 0.30 0.35 0.42 0.41 0.38 0.36 0.34 0.31 0.29 0.27 0.26 0.26 0.28 0.26 0.24 0.24 0.22 0.23 0.22 0.23 0.23 0.23 0.23 0.25 0.25 0.25 0.23 0.21 0.20 0.19 0.20
0.26 0.24 0.26 0.32 0.34 0.36 0.23 0.24 0.38 0.42 0.41 0.41 0.36 0.38 0.40 0.40 0.36 0.33 0.30 0.27 0.27 0.27 0.26 0.26 0.26 0.26 0.23 0.23 0.22 0.23 0.24 0.23 0.23 0.24 0.24 0.24 0.25 0.27 0.26 0.25 0.23 0.22 0.21 0.21
0.26 0.23 0.20 0.33 0.32 0.28 0.33 0.41 0.42 0.43 0.43 0.40 0.39 0.38 0.36 0.34 0.30 0.28 0.26 0.27 0.27 0.25 0.24 0.23 0.24 0.24 0.22 0.22 0.24 0.24 0.24 0.24 0.23 0.24 0.25 0.26 0.26 0.26 0.25 0.25 0.24 0.23 0.22 0.22
0.27 0.24 0.32 0.36 0.35 0.38 0.41 0.39 0.42 0.42 0.41 0.39 0.37 0.33 0.31 0.29 0.29 0.28 0.27 0.26 0.26 0.25 0.23 0.22 0.23 0.24 0.21 0.22 0.24 0.23 0.23 0.23 0.24 0.25 0.26 0.26 0.26 0.24 0.24 0.25 0.24 0.23 0.23 0.22
0.29 0.31 0.33 0.33 0.36 0.41 0.45 0.43 0.44 0.42 0.40 0.36 0.31 0.31 0.30 0.28 0.26 0.25 0.24 0.25 0.25 0.24 0.22 0.20 0.22 0.23 0.23 0.24 0.24 0.24 0.22 0.23 0.24 0.25 0.25 0.26 0.26 0.25 0.24 0.24 0.23 0.23 0.22 0.22
0.27 0.29 0.33 0.38 0.41 0.41 0.42 0.43 0.40 0.36 0.34 0.33 0.31 0.28 0.28 0.25 0.25 0.25 0.25 0.25 0.24 0.23 0.22 0.21 0.22 0.23 0.25 0.25 0.25 0.23 0.23 0.23 0.24 0.25 0.25 0.24 0.25 0.25 0.24 0.25 0.25 0.23 0.23 0.23
0.24 0.33 0.32 0.33 0.36 0.37 0.34 0.32 0.33 0.32 0.30 0.30 0.28 0.26 0.27 0.25 0.26 0.26 0.25 0.25 0.22 0.21 0.21 0.21 0.21 0.22 0.23 0.24 0.24 0.24 0.23 0.24 0.24 0.24 0.24 0.24 0.24 0.24 0.25 0.26 0.27 0.27 0.28 0.27
0.28 0.32 0.33 0.33 0.30 0.32 0.32 0.33 0.31 0.30 0.29 0.26 0.26 0.26 0.26 0.25 0.25 0.25 0.24 0.22 0.20 0.19 0.19 0.19 0.20 0.21 0.23 0.24 0.25 0.24 0.23 0.24 0.24 0.24 0.23 0.23 0.23 0.23 0.22 0.23 0.25 0.26 0.27 0.28
0.27 0.26 0.24 0.26 0.23 0.26 0.26 0.25 0.25 0.25 0.26 0.25 0.25 0.26 0.25 0.24 0.23 0.22 0.20 0.19 0.19 0.18 0.18 0.20 0.21 0.21 0.24 0.25 0.25 0.25 0.24 0.24 0.24 0.23 0.23 0.23 0.23 0.23 0.23 0.22 0.21 0.22 0.25 0.26
0.23 0.24 0.23 0.23 0.23 0.23 0.24 0.23 0.22 0.22 0.23 0.23 0.25 0.24 0.23 0.21 0.20 0.19 0.18 0.17 0.17 0.18 0.19 0.21 0.21 0.22 0.25 0.26 0.25 0.25 0.24 0.23 0.23 0.23 0.23 0.24 0.24 0.23 0.23 0.22 0.22 0.23 0.24 0.25
0.23 0.23 0.22 0.20 0.20 0.21 0.22 0.23 0.23 0.23 0.24 0.23 0.22 0.22 0.21 0.20 0.17 0.16 0.16 0.17 0.16 0.17 0.20 0.21 0.22 0.24 0.26 0.26 0.25 0.24 0.24 0.24 0.24 0.24 0.24 0.23 0.22 0.21 0.22 0.22 0.22 0.23 0.23 0.24
0.20 0.18 0.18 0.18 0.20 0.21 0.22 0.25 0.25 0.24 0.24 0.22 0.20 0.20 0.18 0.16 0.16 0.16 0.16 0.17 0.19 0.20 0.21 0.23 0.23 0.26 0.26 0.26 0.25 0.24 0.24 0.24 0.24 0.22 0.22 0.21 0.21 0.22 0.22 0.23 0.23 0.23 0.24 0.26
0.23 0.23 0.23 0.23 0.22 0.22 0.23 0.25 0.24 0.23 0.22 0.21 0.19 0.17 0.16 0.16 0.15 0.15 0.15 0.17 0.19 0.20 0.22 0.24 0.26 0.27 0.25 0.25 0.25 0.25 0.25 0.24 0.22 0.21 0.21 0.21 0.22 0.23 0.23 0.23 0.23 0.23 0.24 0.25
0.26 0.25 0.25 0.25 0.26 0.25 0.25 0.24 0.23 0.22 0.22 0.20 0.17 0.16 0.16 0.15 0.15 0.16 0.17 0.18 0.19 0.20 0.22 0.25 0.26 0.26 0.24 0.25 0.26 0.26 0.23 0.21 0.20 0.20 0.20 0.21 0.22 0.22 0.23 0.23 0.23 0.24 0.25 0.25
0.26 0.26 0.26 0.26 0.26 0.26 0.24 0.24 0.23 0.22 0.21 0.18 0.17 0.16 0.15 0.15 0.15 0.16 0.17 0.18 0.20 0.22 0.24 0.26 0.26 0.25 0.24 0.25 0.26 0.24 0.22 0.20 0.19 0.19 0.20 0.21 0.22 0.23 0.24 0.24 0.24 0.25 0.25 0.26
0.25 0.26 0.26 0.26 0.25 0.25 0.24 0.23 0.21 0.20 0.19 0.18 0.17 0.16 0.15 0.16 0.16 0.17 0.17 0.17 0.20 0.23 0.25 0.26 0.26 0.24 0.25 0.26 0.25 0.22 0.21 0.19 0.18 0.18 0.19 0.21 0.23 0.23 0.23 0.24 0.24 0.25 0.26 0.26
0.27 0.26 0.26 0.25 0.23 0.23 0.22 0.22 0.21 0.20 0.19 0.18 0.17 0.16 0.16 0.15 0.16 0.16 0.18 0.18 0.22 0.24 0.25 0.26 0.25 0.25 0.26 0.26 0.24 0.22 0.22 0.19 0.18 0.18 0.18 0.22 0.23 0.23 0.23 0.24 0.24 0.25 0.26 0.26
0.25 0.25 0.24 0.23 0.23 0.22 0.22 0.21 0.21 0.20 0.19 0.18 0.17 0.16 0.15 0.16 0.16 0.15 0.16 0.20 0.23 0.24 0.25 0.25 0.25 0.25 0.26 0.25 0.23 0.22 0.21 0.18 0.18 0.17 0.19 0.21 0.23 0.24 0.24 0.24 0.25 0.25 0.26 0.27
0.23 0.23 0.22 0.22 0.22 0.21 0.20 0.20 0.21 0.20 0.20 0.19 0.18 0.17 0.16 0.15 0.16 0.17 0.19 0.21 0.24 0.24 0.25 0.25 0.25 0.25 0.25 0.24 0.22 0.23 0.22 0.18 0.17 0.17 0.19 0.21 0.23 0.24 0.25 0.25 0.25 0.26 0.27 0.28
0.21 0.21 0.21 0.21 0.20 0.20 0.20 0.20 0.20 0.20 0.19 0.18 0.17 0.17 0.16 0.16 0.16 0.17 0.20 0.21 0.23 0.24 0.24 0.25 0.25 0.25 0.24 0.24 0.23 0.23 0.22 0.18 0.17 0.18 0.19 0.20 0.22 0.24 0.25 0.25 0.26 0.26 0.27 0.28
0.19 0.19 0.19 0.20 0.20 0.20 0.20 0.19 0.19 0.19 0.18 0.16 0.16 0.16 0.16 0.16 0.17 0.18 0.19 0.20 0.22 0.23 0.24 0.24 0.24 0.24 0.24 0.23 0.23 0.23 0.22 0.19 0.17 0.18 0.19 0.20 0.21 0.23 0.25 0.25 0.26 0.27 0.27 0.29
0.17 0.18 0.18 0.18 0.19 0.19 0.19 0.19 0.18 0.17 0.17 0.16 0.15 0.16 0.16 0.15 0.15 0.17 0.18 0.19 0.21 0.23 0.23 0.24 0.24 0.24 0.24 0.23 0.23 0.23 0.23 0.22 0.19 0.19 0.19 0.19 0.20 0.22 0.24 0.25 0.27 0.28 0.29 0.29
Wind_Speed
35 35 33 34 33 28 28 32 31 38 35 35 36 36 35 32 33 33 33 33 36 38 40 42 44 44 45 46 45 45 45 45 45 46 46 47 47 47 47 47 46 45 44 43
33 33 32 33 31 34 34 32 34 35 38 38 34 32 32 32 32 33 34 37 39 40 43 44 44 45 46 46 46 46 46 47 48 49 50 50 51 51 50 50 49 49 48 46
33 28 30 32 30 25 24 26 25 27 32 31 34 34 34 35 35 37 38 39 41 43 44 44 45 46 47 47 48 49 50 51 52 53 54 54 54 53 53 53 52 51 50 48
31 31 28 26 25 28 28 31 32 32 35 35 35 36 37 36 37 37 40 41 42 43 44 44 45 47 49 50 51 52 53 54 55 55 56 55 55 54 53 51 50 48 47 45
28 30 35 34 27 27 29 34 33 35 34 35 36 37 38 35 38 41 41 42 43 44 45 47 48 50 52 53 54 54 55 56 56 56 56 55 54 53 51 49 46 45 43 42
29 29 31 31 32 32 33 36 31 29 34 38 39 40 37 39 39 40 40 41 44 45 47 50 52 52 53 54 54 55 55 55 55 55 54 53 51 49 48 46 45 43 42 40
33 33 36 34 31 30 29 34 31 38 43 40 37 38 39 39 39 40 42 44 46 48 50 51 52 52 53 54 54 55 55 55 54 53 52 50 49 47 45 43 41 39 38 37
29 31 36 29 28 31 36 40 41 44 41 36 37 37 37 38 40 43 45 46 48 49 50 51 51 52 53 54 55 54 54 52 52 50 48 46 44 42 41 39 38 36 35 33
31 34 35 37 40 41 41 42 43 36 34 36 35 35 38 40 43 44 46 47 49 50 52 52 52 52 53 54 54 52 50 49 48 45 43 40 39 37 35 34 33 31 31 30
37 36 40 45 42 38 39 36 35 34 34 32 34 36 38 41 43 45 47 49 50 51 52 52 52 53 53 52 51 49 47 45 43 41 37 35 34 32 30 29 28 28 27 27
42 43 39 34 37 40 39 35 33 32 32 33 34 37 40 43 46 48 49 51 51 51 52 52 52 51 49 48 47 44 42 41 39 36 34 32 31 29 28 26 26 25 24 24
35 37 38 38 36 31 29 29 29 30 33 34 37 40 42 46 48 49 50 50 50 50 49 49 51 49 46 45 43 40 38 36 34 32 30 29 29 27 26 24 24 23 23 22
32 30 28 28 30 30 29 31 33 33 35 38 40 42 45 47 48 49 47 46 47 48 49 49 47 45 43 41 39 36 34 32 30 29 28 26 25 23 22 21 20 20 19 18
25 25 26 26 27 30 32 33 34 35 36 38 40 42 43 44 45 44 44 45 47 47 47 45 42 40 39 37 35 32 31 30 28 26 24 22 21 20 20 18 18 16 15 16
24 25 26 29 31 31 32 34 34 35 36 38 38 39 40 41 42 42 43 44 45 43 41 40 38 37 35 33 31 29 28 26 23 21 20 20 20 19 18 17 16 15 15 14
26 26 27 29 32 32 32 33 33 35 35 36 37 38 38 40 41 41 41 42 41 39 38 36 35 33 31 29 28 26 22 20 19 18 19 18 18 17 16 15 15 14 14 13
25 28 30 32 33 33 33 32 32 32 34 35 35 37 39 40 40 40 39 39 37 37 35 33 30 29 29 26 24 20 18 17 18 18 17 17 16 15 15 15 15 14 13 13
27 31 32 33 33 32 30 30 30 32 33 34 35 36 38 40 40 39 37 36 35 33 31 28 27 27 24 23 20 18 17 18 17 17 17 17 16 15 15 15 14 14 14 14
30 31 30 31 30 30 30 30 30 32 33 33 34 36 38 38 36 35 35 34 32 30 27 26 25 24 24 21 19 16 18 17 16 16 17 17 16 16 15 15 15 16 16 15
30 30 29 28 29 29 29 29 30 31 31 32 34 35 37 36 34 34 33 32 29 27 25 24 23 23 22 20 17 18 17 16 16 17 17 17 16 16 16 17 17 17 16 15
30 29 29 28 28 29 29 28 30 31 31 32 34 35 35 35 33 33 32 29 27 25 24 23 21 22 20 17 18 18 16 16 17 17 17 17 17 17 17 17 18 17 17 17
30 29 29 29 29 30 30 30 31 31 31 32 33 34 34 33 32 31 30 28 26 24 22 20 21 21 19 18 18 17 16 17 17 18 18 17 17 18 18 18 18 18 17 17
30 30 30 30 30 30 31 31 31 31 31 32 33 34 33 32 31 30 28 28 25 23 21 19 21 21 19 18 17 16 16 17 17 18 18 17 17 18 18 18 18 18 17 17
31 31 31 32 32 31 31 31 31 30 30 31 32 33 33 31 30 28 28 28 26 22 20 20 20 20 18 17 16 16 16 17 18 18 17 18 18 19 19 18 19 19 18 18
33 33 32 33 32 32 32 32 30 29 29 30 31 32 32 30 29 29 27 26 25 22 20 19 19 19 17 17 16 15 16 17 17 17 18 18 18 19 19 18 19 19 19 19
32 32 32 32 31 31 31 30 28 29 29 29 30 31 31 30 29 27 26 25 24 21 19 18 18 17 16 16 15 15 15 16 17 17 18 18 19 19 19 18 19 20 20 20
32 32 31 30 30 29 29 29 29 29 29 30 30 31 31 30 29 27 25 24 23 20 18 17 17 17 16 16 15 15 15 16 16 16 17 18 19 20 19 19 20 20 20 21
Wind_Direction
292 296 294 290 288 284 277 280 281 289 290 290 294 295 294 294 293 292 293 293 294 295 296 298 298 299 301 302 302 302 302 300 299 298 297 296 295 294 294 293 292 291 291 290
296 294 293 290 289 284 281 282 281 284 288 292 295 297 297 296 293 292 293 293 294 296 298 299 300 300 301 301 301 301 301 300 300 299 298 296 295 294 293 292 290 289 288 287
297 302 300 294 291 286 294 290 287 287 290 297 298 299 298 297 295 296 297 297 297 299 299 300 300 301 301 302 302 301 300 300 299 298 297 296 295 294 293 291 290 288 287 285
297 302 294 296 299 297 290 291 285 292 294 294 295 297 298 296 295 296 298 298 299 300 301 302 303 303 302 302 301 301 300 300 300 299 298 297 295 294 293 292 290 288 286 284
293 292 296 296 296 296 296 295 291 290 294 295 297 297 298 296 295 297 299 299 300 301 302 303 303 303 303 302 302 301 301 301 301 300 299 298 296 294 292 291 289 287 285 283
294 291 291 293 298 296 296 295 292 292 296 298 296 296 297 299 300 300 300 301 302 303 303 304 304 304 303 303 303 303 303 303 303 302 300 298 296 295 292 290 287 286 284 281
285 288 292 296 295 296 298 297 296 298 299 297 296 296 298 300 301 302 303 304 304 304 304 305 305 305 305 305 304 304 304 304 304 302 301 298 297 295 292 289 286 285 283 281
289 288 292 294 296 292 295 297 296 299 297 295 296 297 298 300 302 304 304 305 305 305 305 306 306 306 305 305 305 305 305 305 305 304 302 300 298 296 292 288 285 284 282 279
281 286 290 291 293 295 296 296 298 297 295 296 296 297 299 300 302 303 304 305 306 306 306 307 307 307 306 306 306 306 306 306 306 305 304 302 301 300 295 290 285 283 281 279
292 293 291 294 294 295 298 296 297 296 295 294 297 299 299 301 302 304 306 307 308 307 307 307 308 308 306 307 307 307 306 307 307 306 305 304 303 302 299 293 289 285 282 278
289 294 297 297 297 297 296 295 293 293 294 295 298 300 301 304 306 307 307 308 309 308 308 308 309 310 310 309 308 307 307 308 307 307 305 304 304 302 299 295 291 287 282 277
293 298 296 299 301 301 299 297 296 296 298 299 300 302 305 306 308 308 308 309 310 310 310 311 311 311 311 311 310 309 309 309 309 308 306 306 306 304 300 298 295 290 285 278
295 299 297 296 302 304 302 301 301 299 299 301 302 303 306 307 309 310 310 310 311 312 312 312 312 312 312 312 311 310 310 309 310 310 308 308 308 307 305 304 300 295 290 282
302 303 302 304 304 306 304 304 304 303 303 304 306 308 308 310 311 312 312 313 313 313 313 314 314 314 314 314 314 312 311 310 311 310 310 312 311 310 309 308 306 303 297 289
305 306 302 305 306 307 307 307 306 307 308 310 310 311 313 314 314 314 315 316 316 316 316 316 316 316 317 317 316 315 314 313 313 314 314 315 316 315 314 312 309 306 303 296
307 308 310 311 310 311 310 309 308 309 311 313 314 316 316 317 317 317 318 319 320 320 320 319 319 320 321 320 320 319 319 319 320 321 321 321 320 320 319 318 315 312 308 301
310 310 312 310 310 310 310 309 310 312 314 315 316 318 320 320 320 319 319 321 321 321 321 322 322 324 325 325 325 324 325 325 325 326 326 326 324 324 323 322 321 318 314 309
311 311 311 310 311 312 313 312 313 315 316 317 319 320 322 323 322 321 322 323 323 324 324 325 327 329 331 330 329 328 329 330 330 330 330 330 329 327 327 326 323 320 317 312
314 314 315 314 314 313 313 314 316 318 318 319 321 322 324 325 325 325 325 325 325 326 327 328 329 331 332 332 332 333 332 332 333 333 333 333 332 330 329 328 326 322 318 313
315 316 317 317 317 317 316 315 317 319 320 321 322 324 326 327 327 327 327 327 325 325 326 328 331 333 333 333 333 334 334 334 334 334 335 334 334 332 330 328 327 324 320 316
312 314 315 316 317 318 319 319 320 320 322 322 323 325 326 326 327 328 328 329 327 327 327 328 330 332 333 333 334 334 334 335 335 336 335 334 334 335 334 332 331 328 324 319
310 311 311 312 314 315 316 317 317 318 320 322 324 326 327 327 327 328 329 327 327 326 325 326 330 331 331 333 333 334 334 335 336 337 337 337 337 337 334 333 333 330 326 322
308 309 309 311 312 313 314 316 316 317 318 321 324 326 327 326 326 327 329 330 327 325 325 325 328 330 330 331 332 332 333 335 337 339 339 338 338 338 337 336 336 336 333 330
306 305 306 307 308 310 311 314 315 315 317 319 323 325 326 326 326 326 326 326 326 324 323 324 326 329 329 329 330 330 332 335 338 340 341 340 340 339 338 336 336 336 334 332
306 304 303 304 305 306 308 311 311 313 316 319 322 325 326 326 324 325 326 327 325 322 321 322 325 328 327 327 327 329 331 335 338 340 341 342 341 340 341 339 339 338 337 335
307 306 305 304 304 305 306 308 308 311 314 317 321 323 325 326 325 324 324 325 324 320 318 319 322 325 325 326 326 328 330 334 338 340 342 343 343 341 340 341 341 340 338 337
309 310 307 306 305 305 306 306 307 308 312 315 316 320 322 324 325 323 321 322 323 320 316 316 318 322 323 324 325 327 329 334 339 341 344 346 346 344 340 339 339 338 338 339